When you browse on this site, cookies collect data to enhance your experience and personalize the content and advertising you see.
Visit our Privacy Policy to learn more. By continuing to use the site, you agree to this use of cookies and data.
  • In Hungary
  • List of Countries
  • For 7 days
  • Water Temperature
  • Satellite Maps
  • Weather Map
  • News
  • Weather Widgets
  • user-avatar
    Login

    Hourly Weather Alborg

    Today, 16 January, Wednesday

    Time Temperature Precipitation Wind Pressure Humidity
    00:00 +3°C° 0.2 mm 5 mps 748 mmHg 89%
    01:00 +4°C° 0 mm 4 mps 748 mmHg 91%
    02:00 +4°C° 0.3 mm 4 mps 748 mmHg 92%
    03:00 +3°C° 0.3 mm 3 mps 747 mmHg 94%
    04:00 +3°C° 0.3 mm 3 mps 747 mmHg 96%
    05:00 +4°C° 0.2 mm 4 mps 746 mmHg 94%
    06:00 +4°C° 0.2 mm 6 mps 746 mmHg 92%
    07:00 +4°C° 0 mm 6 mps 745 mmHg 90%
    08:00 +4°C° 0 mm 7 mps 745 mmHg 89%
    09:00 +4°C° 0 mm 8 mps 745 mmHg 89%
    10:00 +5°C° 0 mm 8 mps 744 mmHg 88%
    11:00 +5°C° 0.1 mm 9 mps 744 mmHg 87%
    12:00 +5°C° 0.1 mm 9 mps 743 mmHg 86%
    13:00 +5°C° 0.1 mm 9 mps 743 mmHg 86%
    14:00 +5°C° 0.1 mm 9 mps 743 mmHg 85%
    15:00 +5°C° 0.1 mm 9 mps 742 mmHg 85%
    16:00 +5°C° 0.1 mm 9 mps 741 mmHg 85%
    17:00 +5°C° 0.5 mm 9 mps 741 mmHg 86%
    18:00 +5°C° 0.5 mm 9 mps 740 mmHg 86%
    19:00 +5°C° 0.5 mm 9 mps 740 mmHg 87%
    20:00 +4°C° 0.4 mm 8 mps 739 mmHg 87%
    21:00 +4°C° 0.4 mm 7 mps 739 mmHg 86%
    22:00 +4°C° 0.4 mm 7 mps 739 mmHg 86%
    23:00 +4°C° 0 mm 6 mps 739 mmHg 85%

    Tomorrow, 17 January, Thursday

    Time Temperature Precipitation Wind Pressure Humidity
    00:00 +3°C° 0 mm 6 mps 738 mmHg 84%
    01:00 +3°C° 0 mm 6 mps 738 mmHg 83%
    02:00 +3°C° 0 mm 6 mps 738 mmHg 76%
    03:00 +2°C° 0 mm 6 mps 738 mmHg 70%
    04:00 +2°C° 0 mm 6 mps 738 mmHg 63%
    05:00 +2°C° 0 mm 5 mps 739 mmHg 65%
    06:00 +1°C° 0 mm 5 mps 739 mmHg 66%
    07:00 +1°C° 0 mm 5 mps 739 mmHg 68%
    08:00 0°C° 0 mm 5 mps 740 mmHg 66%
    09:00 0°C° 0 mm 4 mps 740 mmHg 65%
    10:00 0°C° 0 mm 4 mps 740 mmHg 63%
    11:00 0°C° 0 mm 4 mps 741 mmHg 65%
    12:00 0°C° 0 mm 5 mps 741 mmHg 66%
    13:00 0°C° 0 mm 5 mps 742 mmHg 68%
    14:00 -2°C° 0.1 mm 6 mps 742 mmHg 71%
    15:00 -3°C° 0.1 mm 6 mps 743 mmHg 74%
    16:00 -3°C° 0.1 mm 7 mps 744 mmHg 77%
    17:00 -4°C° 0.1 mm 8 mps 745 mmHg 73%
    18:00 -4°C° 0.1 mm 9 mps 746 mmHg 70%
    19:00 -4°C° 0.1 mm 9 mps 747 mmHg 66%
    20:00 -4°C° 0 mm 9 mps 749 mmHg 67%
    21:00 -4°C° 0 mm 8 mps 750 mmHg 69%
    22:00 -3°C° 0 mm 7 mps 751 mmHg 70%
    23:00 -3°C° 0 mm 6 mps 752 mmHg 70%

    Day after tomorrow, 18 January, Friday

    Time Temperature Precipitation Wind Pressure Humidity
    00:00 -3°C° 0 mm 4 mps 753 mmHg 69%
    01:00 -2°C° 0 mm 3 mps 754 mmHg 69%
    02:00 -2°C° 0 mm 3 mps 754 mmHg 66%
    03:00 -2°C° 0 mm 3 mps 755 mmHg 62%
    04:00 -2°C° 0 mm 3 mps 755 mmHg 59%
    05:00 -2°C° 0 mm 4 mps 755 mmHg 59%
    06:00 -2°C° 0 mm 4 mps 756 mmHg 59%
    07:00 -1°C° 0 mm 5 mps 756 mmHg 59%
    08:00 -1°C° 0 mm 5 mps 756 mmHg 59%
    09:00 -1°C° 0 mm 5 mps 756 mmHg 59%
    10:00 0°C° 0 mm 4 mps 757 mmHg 58%
    11:00 0°C° 0 mm 4 mps 757 mmHg 56%
    12:00 0°C° 0 mm 5 mps 757 mmHg 54%
    13:00 +1°C° 0 mm 5 mps 757 mmHg 52%
    14:00 0°C° 0 mm 4 mps 758 mmHg 55%
    15:00 0°C° 0 mm 3 mps 758 mmHg 58%
    16:00 0°C° 0 mm 3 mps 758 mmHg 61%
    17:00 -1°C° 0 mm 3 mps 759 mmHg 61%
    18:00 -1°C° 0 mm 2 mps 759 mmHg 61%
    19:00 -1°C° 0 mm 2 mps 760 mmHg 62%
    20:00 -1°C° 0 mm 2 mps 760 mmHg 62%
    21:00 -1°C° 0 mm 2 mps 760 mmHg 63%
    22:00 -1°C° 0 mm 2 mps 760 mmHg 64%
    23:00 -1°C° 0 mm 3 mps 760 mmHg 67%

    19 January, Saturday

    Time Temperature Precipitation Wind Pressure Humidity
    00:00 -1°C° 0 mm 3 mps 760 mmHg 71%
    01:00 -1°C° 0 mm 3 mps 760 mmHg 75%
    02:00 -1°C° 0 mm 3 mps 760 mmHg 76%
    03:00 -1°C° 0 mm 3 mps 760 mmHg 77%
    04:00 -1°C° 0 mm 3 mps 760 mmHg 79%
    05:00 -1°C° 0 mm 3 mps 760 mmHg 79%
    06:00 -1°C° 0 mm 3 mps 760 mmHg 79%
    07:00 -1°C° 0 mm 3 mps 760 mmHg 79%
    08:00 -1°C° 0 mm 3 mps 760 mmHg 79%
    09:00 -1°C° 0 mm 3 mps 760 mmHg 78%
    10:00 -1°C° 0 mm 3 mps 760 mmHg 77%
    11:00 0°C° 0 mm 3 mps 760 mmHg 75%
    12:00 0°C° 0 mm 3 mps 760 mmHg 72%
    13:00 +1°C° 0 mm 3 mps 760 mmHg 69%
    14:00 +1°C° 0 mm 2 mps 760 mmHg 72%
    15:00 +1°C° 0 mm 2 mps 760 mmHg 75%
    16:00 -1°C° 0 mm 2 mps 760 mmHg 78%
    17:00 -1°C° 0 mm 2 mps 760 mmHg 80%
    18:00 -1°C° 0 mm 2 mps 760 mmHg 82%
    19:00 0°C° 0 mm 1 mps 760 mmHg 85%
    20:00 0°C° 0 mm 1 mps 760 mmHg 86%
    21:00 0°C° 0 mm 1 mps 760 mmHg 87%
    22:00 0°C° 0 mm 1 mps 761 mmHg 89%
    23:00 -2°C° 0 mm 2 mps 761 mmHg 89%

    20 January, Sunday

    Time Temperature Precipitation Wind Pressure Humidity
    00:00 -2°C° 0 mm 2 mps 761 mmHg 90%
    01:00 -2°C° 0 mm 2 mps 761 mmHg 91%
    02:00 -2°C° 0 mm 2 mps 761 mmHg 90%
    03:00 -2°C° 0 mm 2 mps 761 mmHg 90%
    04:00 -2°C° 0 mm 2 mps 761 mmHg 89%
    05:00 +1°C° 0 mm 1 mps 761 mmHg 89%
    06:00 +1°C° 0 mm 1 mps 761 mmHg 88%
    07:00 +1°C° 0 mm 1 mps 762 mmHg 87%
    08:00 -1°C° 0 mm 2 mps 762 mmHg 85%
    09:00 -1°C° 0 mm 2 mps 763 mmHg 84%
    10:00 -2°C° 0 mm 3 mps 763 mmHg 82%
    11:00 -1°C° 0 mm 3 mps 763 mmHg 72%
    12:00 -1°C° 0 mm 3 mps 764 mmHg 63%
    13:00 0°C° 0 mm 3 mps 764 mmHg 53%
    14:00 -1°C° 0 mm 3 mps 764 mmHg 55%
    15:00 -1°C° 0 mm 3 mps 764 mmHg 57%
    16:00 -2°C° 0 mm 2 mps 765 mmHg 59%
    17:00 -2°C° 0 mm 2 mps 765 mmHg 60%
    18:00 -2°C° 0 mm 2 mps 765 mmHg 61%
    19:00 -2°C° 0 mm 2 mps 766 mmHg 63%
    20:00 -2°C° 0 mm 2 mps 766 mmHg 63%
    21:00 -1°C° 0 mm 1 mps 767 mmHg 63%
    22:00 -1°C° 0 mm 1 mps 767 mmHg 63%
    23:00 -1°C° 0 mm 1 mps 768 mmHg 64%

    21 January, Monday

    Time Temperature Precipitation Wind Pressure Humidity
    00:00 -1°C° 0 mm 1 mps 768 mmHg 65%
    01:00 -1°C° 0 mm 1 mps 768 mmHg 65%
    02:00 -1°C° 0 mm 1 mps 768 mmHg 66%
    03:00 -1°C° 0 mm 1 mps 768 mmHg 67%
    04:00 -1°C° 0 mm 1 mps 769 mmHg 68%
    05:00 -1°C° 0 mm 1 mps 769 mmHg 68%
    06:00 -1°C° 0 mm 1 mps 769 mmHg 68%
    07:00 -2°C° 0 mm 1 mps 769 mmHg 68%
    08:00 -4°C° 0 mm 2 mps 769 mmHg 66%
    09:00 -3°C° 0 mm 2 mps 769 mmHg 63%
    10:00 -4°C° 0 mm 3 mps 769 mmHg 61%
    11:00 -4°C° 0 mm 3 mps 769 mmHg 56%
    12:00 -3°C° 0 mm 4 mps 769 mmHg 50%
    13:00 -2°C° 0 mm 4 mps 769 mmHg 45%
    14:00 -3°C° 0 mm 4 mps 768 mmHg 49%
    15:00 -3°C° 0 mm 4 mps 768 mmHg 53%
    16:00 -3°C° 0 mm 4 mps 768 mmHg 57%
    17:00 -4°C° 0 mm 5 mps 767 mmHg 61%
    18:00 -4°C° 0 mm 5 mps 767 mmHg 65%
    19:00 -4°C° 0 mm 5 mps 767 mmHg 69%
    20:00 -4°C° 0 mm 6 mps 766 mmHg 71%
    21:00 -4°C° 0 mm 6 mps 766 mmHg 73%
    22:00 -4°C° 0 mm 6 mps 766 mmHg 75%
    23:00 -4°C° 0 mm 6 mps 765 mmHg 75%
    Show more